Location: North Evanston
(42.0634°N, 87.6976°W)
Time: 23:33:02
(UTC+00:00)

Transit 2A - Pass Details

Date: 17 May 2026
Orbit: 595 x 949 km, 66.7° (Epoch: 5 June)

Event Time Altitude Azimuth Distance (km) Brightness Sun altitude
Rises 22:31:22 0° 253° (WSW) 3,567 10.6 26.8°
Reaches altitude 10° 22:34:37 10° 269° (W) 2,588 10.6 26.2°
Maximum altitude 22:39:03 21° 316° (NW) 1,865 9.0 25.4°
Drops below altitude 10° 22:43:17 10° 5° (N) 2,441 8.7 24.6°
Sets 22:46:16 0° 21° (NNE) 3,309 9.1 24.1°
